Year,Month,Day,Hour,Minute,Value (Times are PST for windgust in km/hr)
2016,03,14,00,00,20.90
2016,03,14,00,01,14.50
2016,03,14,00,02,8.10
2016,03,14,00,03,19.30
2016,03,14,00,04,17.70
2016,03,14,00,05,19.30
2016,03,14,00,06,27.40
2016,03,14,00,07,22.50
2016,03,14,00,08,22.50
2016,03,14,00,09,8.10
2016,03,14,00,10,4.80
2016,03,14,00,11,1.60
2016,03,14,00,13,3.20
2016,03,14,00,15,3.20
2016,03,14,00,16,3.20
2016,03,14,00,17,3.20
2016,03,14,00,18,6.40
2016,03,14,00,19,4.80
2016,03,14,00,21,4.80
2016,03,14,00,23,6.40
2016,03,14,00,24,11.30
2016,03,14,00,25,3.20
2016,03,14,00,28,4.80
2016,03,14,00,29,3.20
2016,03,14,02,08,3.20
2016,03,14,02,45,3.20
2016,03,14,02,46,6.40
2016,03,14,02,47,4.80
2016,03,14,02,48,3.20
2016,03,14,02,51,4.80
2016,03,14,02,52,20.90
2016,03,14,02,53,4.80
2016,03,14,02,54,1.60
2016,03,14,02,55,8.10
2016,03,14,02,57,11.30
2016,03,14,02,58,8.10
2016,03,14,02,59,1.60
2016,03,14,03,00,1.60
2016,03,14,05,00,1.60
2016,03,14,05,01,1.60
2016,03,14,05,05,1.60
2016,03,14,05,06,3.20
2016,03,14,05,07,4.80
2016,03,14,05,14,4.80
2016,03,14,05,15,6.40
2016,03,14,05,16,3.20
2016,03,14,05,18,3.20
2016,03,14,05,19,4.80
2016,03,14,05,20,3.20
2016,03,14,05,21,3.20
2016,03,14,05,25,1.60
2016,03,14,05,27,1.60
2016,03,14,05,32,1.60
2016,03,14,05,57,1.60
2016,03,14,06,17,1.60
2016,03,14,06,55,3.20
2016,03,14,06,56,3.20
2016,03,14,06,57,1.60
2016,03,14,06,58,3.20
2016,03,14,06,59,3.20
2016,03,14,07,00,4.80
2016,03,14,07,01,6.40
2016,03,14,07,02,11.30
2016,03,14,07,03,9.60
2016,03,14,07,04,16.10
2016,03,14,07,05,9.60
2016,03,14,07,06,11.30
2016,03,14,07,07,9.60
2016,03,14,07,08,11.30
2016,03,14,07,09,11.30
2016,03,14,07,10,12.90
2016,03,14,07,11,6.40
2016,03,14,07,12,8.10
2016,03,14,07,13,4.80
2016,03,14,07,14,9.60
2016,03,14,07,15,6.40
2016,03,14,07,16,6.40
2016,03,14,07,17,4.80
2016,03,14,07,18,3.20
2016,03,14,08,05,1.60
2016,03,14,08,36,1.60
2016,03,14,08,59,3.20
2016,03,14,09,00,3.20
2016,03,14,09,01,3.20
2016,03,14,09,02,3.20
2016,03,14,09,05,1.60
2016,03,14,09,30,3.20
2016,03,14,09,31,8.10
2016,03,14,09,32,6.40
2016,03,14,09,33,8.10
2016,03,14,09,51,3.20
2016,03,14,09,52,1.60
2016,03,14,09,53,3.20
2016,03,14,09,56,1.60
2016,03,14,09,57,3.20
2016,03,14,10,04,1.60
2016,03,14,10,05,4.80
2016,03,14,10,06,3.20
2016,03,14,10,08,1.60
2016,03,14,10,09,4.80
2016,03,14,10,12,8.10
2016,03,14,10,13,8.10
2016,03,14,10,14,4.80
2016,03,14,10,15,4.80
2016,03,14,10,16,8.10
2016,03,14,10,17,4.80
2016,03,14,10,18,6.40
2016,03,14,10,19,6.40
2016,03,14,10,20,8.10
2016,03,14,10,21,8.10
2016,03,14,10,22,6.40
2016,03,14,10,23,6.40
2016,03,14,10,24,9.60
2016,03,14,10,25,8.10
2016,03,14,10,26,9.60
2016,03,14,10,27,8.10
2016,03,14,10,28,9.60
2016,03,14,10,29,11.30
2016,03,14,10,30,11.30
2016,03,14,10,31,11.30
2016,03,14,10,32,12.90
2016,03,14,10,33,16.10
2016,03,14,10,34,9.60
2016,03,14,10,35,9.60
2016,03,14,10,36,14.50
2016,03,14,10,37,17.70
2016,03,14,10,38,16.10
2016,03,14,10,39,14.50
2016,03,14,10,40,16.10
2016,03,14,10,41,17.70
2016,03,14,10,42,16.10
2016,03,14,10,43,19.30
2016,03,14,10,44,16.10
2016,03,14,10,45,11.30
2016,03,14,10,46,16.10
2016,03,14,10,47,17.70
2016,03,14,10,48,11.30
2016,03,14,10,49,14.50
2016,03,14,10,50,20.90
2016,03,14,10,51,22.50
2016,03,14,10,52,16.10
2016,03,14,10,53,14.50
2016,03,14,10,54,16.10
2016,03,14,10,55,20.90
2016,03,14,10,56,16.10
2016,03,14,10,57,22.50
2016,03,14,10,58,19.30
2016,03,14,10,59,11.30
2016,03,14,11,00,17.70
2016,03,14,11,01,14.50
2016,03,14,11,02,16.10
2016,03,14,11,03,16.10
2016,03,14,11,04,17.70
2016,03,14,11,05,19.30
2016,03,14,11,06,17.70
2016,03,14,11,07,12.90
2016,03,14,11,08,14.50
2016,03,14,11,09,19.30
2016,03,14,11,10,19.30
2016,03,14,11,11,16.10
2016,03,14,11,12,14.50
2016,03,14,11,13,17.70
2016,03,14,11,14,9.60
2016,03,14,11,15,11.30
2016,03,14,11,16,9.60
2016,03,14,11,17,11.30
2016,03,14,11,18,11.30
2016,03,14,11,19,16.10
2016,03,14,11,20,11.30
2016,03,14,11,21,16.10
2016,03,14,11,22,9.60
2016,03,14,11,23,11.30
2016,03,14,11,24,9.60
2016,03,14,11,25,11.30
2016,03,14,11,26,14.50
2016,03,14,11,27,11.30
2016,03,14,11,28,11.30
2016,03,14,11,29,9.60
2016,03,14,11,30,11.30
2016,03,14,11,31,12.90
2016,03,14,11,32,14.50
2016,03,14,11,33,11.30
2016,03,14,11,34,8.10
2016,03,14,11,35,6.40
2016,03,14,11,36,14.50
2016,03,14,11,37,14.50
2016,03,14,11,38,16.10
2016,03,14,11,39,19.30
2016,03,14,11,40,19.30
2016,03,14,11,41,11.30
2016,03,14,11,42,17.70
2016,03,14,11,43,17.70
2016,03,14,11,44,11.30
2016,03,14,11,45,9.60
2016,03,14,11,46,8.10
2016,03,14,11,47,9.60
2016,03,14,11,48,9.60
2016,03,14,11,49,11.30
2016,03,14,11,50,9.60
2016,03,14,11,51,11.30
2016,03,14,11,52,9.60
2016,03,14,11,53,9.60
2016,03,14,11,54,6.40
2016,03,14,11,55,3.20
2016,03,14,11,56,4.80
2016,03,14,11,58,6.40
2016,03,14,11,59,3.20
2016,03,14,12,00,9.60
2016,03,14,12,01,9.60
2016,03,14,12,02,1.60
2016,03,14,12,03,6.40
2016,03,14,12,04,8.10
2016,03,14,12,05,6.40
2016,03,14,12,06,9.60
2016,03,14,12,07,9.60
2016,03,14,12,08,8.10
2016,03,14,12,09,8.10
2016,03,14,12,10,8.10
2016,03,14,12,11,8.10
2016,03,14,12,12,6.40
2016,03,14,12,13,8.10
2016,03,14,12,14,14.50
2016,03,14,12,15,9.60
2016,03,14,12,16,4.80
2016,03,14,12,17,6.40
2016,03,14,12,18,8.10
2016,03,14,12,19,6.40
2016,03,14,12,20,9.60
2016,03,14,12,21,11.30
2016,03,14,12,22,14.50
2016,03,14,12,23,12.90
2016,03,14,12,24,9.60
2016,03,14,12,25,14.50
2016,03,14,12,26,6.40
2016,03,14,12,27,9.60
2016,03,14,12,28,8.10
2016,03,14,12,29,9.60
2016,03,14,12,30,6.40
2016,03,14,12,31,11.30
2016,03,14,12,32,11.30
2016,03,14,12,33,9.60
2016,03,14,12,34,4.80
2016,03,14,12,35,3.20
2016,03,14,12,36,9.60
2016,03,14,12,37,11.30
2016,03,14,12,38,9.60
2016,03,14,12,39,9.60
2016,03,14,12,40,16.10
2016,03,14,12,41,9.60
2016,03,14,12,42,9.60
2016,03,14,12,43,17.70
2016,03,14,12,44,11.30
2016,03,14,12,45,11.30
2016,03,14,12,46,16.10
2016,03,14,12,47,11.30
2016,03,14,12,48,11.30
2016,03,14,12,49,14.50
2016,03,14,12,50,14.50
2016,03,14,12,51,16.10
2016,03,14,12,52,16.10
2016,03,14,12,53,8.10
2016,03,14,12,54,4.80
2016,03,14,12,55,9.60
2016,03,14,12,56,6.40
2016,03,14,12,57,8.10
2016,03,14,12,58,12.90
2016,03,14,12,59,9.60
2016,03,14,13,00,8.10
2016,03,14,13,01,11.30
2016,03,14,13,02,8.10
2016,03,14,13,03,11.30
2016,03,14,13,04,16.10
2016,03,14,13,05,14.50
2016,03,14,13,06,9.60
2016,03,14,13,07,9.60
2016,03,14,13,08,6.40
2016,03,14,13,09,14.50
2016,03,14,13,10,11.30
2016,03,14,13,11,17.70
2016,03,14,13,12,16.10
2016,03,14,13,13,14.50
2016,03,14,13,14,11.30
2016,03,14,13,15,16.10
2016,03,14,13,16,16.10
2016,03,14,13,17,11.30
2016,03,14,13,18,16.10
2016,03,14,13,19,17.70
2016,03,14,13,20,17.70
2016,03,14,13,21,19.30
2016,03,14,13,22,17.70
2016,03,14,13,23,16.10
2016,03,14,13,24,17.70
2016,03,14,13,25,14.50
2016,03,14,13,26,11.30
2016,03,14,13,27,16.10
2016,03,14,13,28,14.50
2016,03,14,13,29,16.10
2016,03,14,13,30,16.10
2016,03,14,13,31,17.70
2016,03,14,13,32,11.30
2016,03,14,13,33,16.10
2016,03,14,13,34,9.60
2016,03,14,13,35,8.10
2016,03,14,13,36,8.10
2016,03,14,13,37,9.60
2016,03,14,13,38,11.30
2016,03,14,13,39,11.30
2016,03,14,13,40,8.10
2016,03,14,13,41,11.30
2016,03,14,13,42,12.90
2016,03,14,13,43,14.50
2016,03,14,13,44,11.30
2016,03,14,13,45,17.70
2016,03,14,13,46,11.30
2016,03,14,13,47,20.90
2016,03,14,13,48,16.10
2016,03,14,13,49,6.40
2016,03,14,13,50,3.20
2016,03,14,13,51,8.10
2016,03,14,13,52,9.60
2016,03,14,13,53,6.40
2016,03,14,13,54,14.50
2016,03,14,13,55,6.40
2016,03,14,13,56,11.30
2016,03,14,13,57,12.90
2016,03,14,13,58,8.10
2016,03,14,13,59,8.10
2016,03,14,14,00,6.40
2016,03,14,14,01,9.60
2016,03,14,14,02,6.40
2016,03,14,14,03,3.20
2016,03,14,14,07,4.80
2016,03,14,14,08,6.40
2016,03,14,14,09,22.50
2016,03,14,14,10,22.50
2016,03,14,14,11,9.60
2016,03,14,14,12,9.60
2016,03,14,14,13,16.10
2016,03,14,14,14,14.50
2016,03,14,14,15,9.60
2016,03,14,14,16,9.60
2016,03,14,14,17,6.40
2016,03,14,14,18,8.10
2016,03,14,14,19,1.60
2016,03,14,14,20,9.60
2016,03,14,14,21,9.60
2016,03,14,14,22,9.60
2016,03,14,14,23,11.30
2016,03,14,14,24,17.70
2016,03,14,14,25,16.10
2016,03,14,14,26,16.10
2016,03,14,14,27,16.10
2016,03,14,14,28,19.30
2016,03,14,14,29,19.30
2016,03,14,14,30,16.10
2016,03,14,14,31,17.70
2016,03,14,14,32,14.50
2016,03,14,14,33,16.10
2016,03,14,14,34,8.10
2016,03,14,14,35,12.90
2016,03,14,14,36,11.30
2016,03,14,14,37,11.30
2016,03,14,14,38,16.10
2016,03,14,14,39,16.10
2016,03,14,14,40,16.10
2016,03,14,14,41,16.10
2016,03,14,14,42,17.70
2016,03,14,14,43,17.70
2016,03,14,14,44,9.60
2016,03,14,14,45,3.20
2016,03,14,14,46,6.40
2016,03,14,14,47,6.40
2016,03,14,14,48,6.40
2016,03,14,14,49,6.40
2016,03,14,14,50,3.20
2016,03,14,14,51,17.70
2016,03,14,14,52,16.10
2016,03,14,14,53,9.60
2016,03,14,14,54,19.30
2016,03,14,14,55,8.10
2016,03,14,14,56,11.30
2016,03,14,14,57,11.30
2016,03,14,14,58,6.40
2016,03,14,14,59,4.80
2016,03,14,15,00,4.80
2016,03,14,15,01,1.60
2016,03,14,15,02,9.60
2016,03,14,15,03,8.10
2016,03,14,15,04,9.60
2016,03,14,15,05,8.10
2016,03,14,15,06,8.10
2016,03,14,15,07,3.20
2016,03,14,15,08,6.40
2016,03,14,15,09,8.10
2016,03,14,15,10,8.10
2016,03,14,15,12,1.60
2016,03,14,15,13,4.80
2016,03,14,15,14,4.80
2016,03,14,15,15,11.30
2016,03,14,15,16,1.60
2016,03,14,15,17,11.30
2016,03,14,15,18,9.60
2016,03,14,15,19,11.30
2016,03,14,15,20,8.10
2016,03,14,15,21,9.60
2016,03,14,15,22,8.10
2016,03,14,15,23,9.60
2016,03,14,15,24,19.30
2016,03,14,15,25,14.50
2016,03,14,15,26,4.80
2016,03,14,15,27,4.80
2016,03,14,15,28,8.10
2016,03,14,15,29,3.20
2016,03,14,15,30,6.40
2016,03,14,15,31,1.60
2016,03,14,15,32,4.80
2016,03,14,15,34,1.60
2016,03,14,15,36,3.20
2016,03,14,15,37,9.60
2016,03,14,15,38,9.60
2016,03,14,15,39,17.70
2016,03,14,15,40,22.50
2016,03,14,15,41,4.80
2016,03,14,15,42,8.10
2016,03,14,15,43,14.50
2016,03,14,15,44,14.50
2016,03,14,15,47,6.40
2016,03,14,15,48,6.40
2016,03,14,15,49,4.80
2016,03,14,15,50,1.60
2016,03,14,15,51,3.20
2016,03,14,15,52,6.40
2016,03,14,15,53,6.40
2016,03,14,15,54,1.60
2016,03,14,15,56,3.20
2016,03,14,15,57,1.60
2016,03,14,15,58,1.60
2016,03,14,16,00,1.60
2016,03,14,16,02,1.60
2016,03,14,16,03,6.40
2016,03,14,16,04,1.60
2016,03,14,16,05,3.20
2016,03,14,16,06,6.40
2016,03,14,16,07,9.60
2016,03,14,16,08,11.30
2016,03,14,16,09,9.60
2016,03,14,16,10,6.40
2016,03,14,16,11,6.40
2016,03,14,16,12,6.40
2016,03,14,16,13,1.60
2016,03,14,16,14,8.10
2016,03,14,16,15,8.10
2016,03,14,16,16,17.70
2016,03,14,16,17,12.90
2016,03,14,16,18,11.30
2016,03,14,16,19,9.60
2016,03,14,16,20,16.10
2016,03,14,16,21,6.40
2016,03,14,16,22,8.10
2016,03,14,16,23,11.30
2016,03,14,16,24,14.50
2016,03,14,16,25,14.50
2016,03,14,16,26,6.40
2016,03,14,16,27,6.40
2016,03,14,16,28,16.10
2016,03,14,16,29,4.80
2016,03,14,16,30,14.50
2016,03,14,16,31,24.20
2016,03,14,16,32,16.10
2016,03,14,16,33,19.30
2016,03,14,16,34,8.10
2016,03,14,16,35,6.40
2016,03,14,16,37,9.60
2016,03,14,16,38,19.30
2016,03,14,16,39,9.60
2016,03,14,16,40,16.10
2016,03,14,16,41,22.50
2016,03,14,16,42,17.70
2016,03,14,16,43,14.50
2016,03,14,16,44,16.10
2016,03,14,16,45,9.60
2016,03,14,16,46,8.10
2016,03,14,16,47,9.60
2016,03,14,16,48,9.60
2016,03,14,16,49,9.60
2016,03,14,16,50,14.50
2016,03,14,16,51,9.60
2016,03,14,16,52,9.60
2016,03,14,16,53,6.40
2016,03,14,16,54,19.30
2016,03,14,16,55,14.50
2016,03,14,16,56,16.10
2016,03,14,16,57,19.30
2016,03,14,16,58,16.10
2016,03,14,16,59,9.60
2016,03,14,17,00,19.30
2016,03,14,17,01,22.50
2016,03,14,17,02,14.50
2016,03,14,17,03,11.30
2016,03,14,17,04,9.60
2016,03,14,17,05,14.50
2016,03,14,17,06,4.80
2016,03,14,17,07,11.30
2016,03,14,17,08,4.80
2016,03,14,17,09,8.10
2016,03,14,17,10,6.40
2016,03,14,17,11,6.40
2016,03,14,17,12,11.30
2016,03,14,17,13,9.60
2016,03,14,17,14,11.30
2016,03,14,17,15,8.10
2016,03,14,17,16,6.40
2016,03,14,17,17,4.80
2016,03,14,17,18,6.40
2016,03,14,17,19,6.40
2016,03,14,17,20,6.40
2016,03,14,17,21,14.50
2016,03,14,17,22,12.90
2016,03,14,17,23,14.50
2016,03,14,17,24,8.10
2016,03,14,17,25,4.80
2016,03,14,17,26,3.20
2016,03,14,17,27,4.80
2016,03,14,17,28,17.70
2016,03,14,17,29,8.10
2016,03,14,17,30,8.10
2016,03,14,17,31,14.50
2016,03,14,17,32,16.10
2016,03,14,17,33,9.60
2016,03,14,17,34,6.40
2016,03,14,17,35,1.60
2016,03,14,17,36,4.80
2016,03,14,17,37,6.40
2016,03,14,17,38,6.40
2016,03,14,17,39,1.60
2016,03,14,17,40,8.10
2016,03,14,17,41,8.10
2016,03,14,17,42,1.60
2016,03,14,17,43,12.90
2016,03,14,17,44,11.30
2016,03,14,17,45,11.30
2016,03,14,17,46,11.30
2016,03,14,17,47,12.90
2016,03,14,17,48,8.10
2016,03,14,17,49,6.40
2016,03,14,17,50,11.30
2016,03,14,17,51,9.60
2016,03,14,17,52,3.20
2016,03,14,17,53,1.60
2016,03,14,17,54,3.20
2016,03,14,17,55,3.20
2016,03,14,17,56,1.60
2016,03,14,17,58,1.60
2016,03,14,17,59,4.80
2016,03,14,18,00,6.40
2016,03,14,18,01,6.40
2016,03,14,18,02,4.80
2016,03,14,18,03,3.20
2016,03,14,18,04,6.40
2016,03,14,18,05,4.80
2016,03,14,18,07,8.10
2016,03,14,18,08,4.80
2016,03,14,18,09,6.40
2016,03,14,18,10,4.80
2016,03,14,18,11,3.20
2016,03,14,18,12,6.40
2016,03,14,18,13,1.60
2016,03,14,18,14,1.60
2016,03,14,18,15,4.80
2016,03,14,18,16,11.30
2016,03,14,18,17,11.30
2016,03,14,18,18,14.50
2016,03,14,18,19,9.60
2016,03,14,18,20,1.60
2016,03,14,18,21,3.20
2016,03,14,18,22,4.80
2016,03,14,18,23,1.60
2016,03,14,18,24,4.80
2016,03,14,18,25,8.10
2016,03,14,18,26,6.40
2016,03,14,18,27,4.80
2016,03,14,18,28,4.80
2016,03,14,18,30,6.40
2016,03,14,18,31,3.20
2016,03,14,18,32,3.20
2016,03,14,18,34,3.20
2016,03,14,18,35,1.60
2016,03,14,18,38,1.60
2016,03,14,18,41,4.80
2016,03,14,18,42,3.20
2016,03,14,18,44,6.40
2016,03,14,18,45,6.40
2016,03,14,18,46,6.40
2016,03,14,18,47,8.10
2016,03,14,18,48,9.60
2016,03,14,18,49,8.10
2016,03,14,18,51,6.40
2016,03,14,18,52,4.80
2016,03,14,18,54,8.10
2016,03,14,18,55,4.80
2016,03,14,18,56,8.10
2016,03,14,18,57,8.10
2016,03,14,18,58,8.10
2016,03,14,18,59,1.60
2016,03,14,19,01,1.60
2016,03,14,19,02,4.80
2016,03,14,19,03,9.60
2016,03,14,19,04,6.40
2016,03,14,19,05,9.60
2016,03,14,19,06,9.60
2016,03,14,19,07,3.20
2016,03,14,19,08,8.10
2016,03,14,19,09,9.60
2016,03,14,19,10,6.40
2016,03,14,19,11,19.30
2016,03,14,19,12,17.70
2016,03,14,19,13,1.60
2016,03,14,19,14,4.80
2016,03,14,19,15,6.40
2016,03,14,19,16,9.60
2016,03,14,19,17,8.10
2016,03,14,19,18,16.10
2016,03,14,19,19,8.10
2016,03,14,19,20,11.30
2016,03,14,19,21,16.10
2016,03,14,19,22,11.30
2016,03,14,19,23,11.30
2016,03,14,19,24,17.70
2016,03,14,19,25,22.50
2016,03,14,19,26,8.10
2016,03,14,19,27,16.10
2016,03,14,19,28,17.70
2016,03,14,19,29,20.90
2016,03,14,19,30,8.10
2016,03,14,19,31,8.10
2016,03,14,19,32,11.30
2016,03,14,19,33,17.70
2016,03,14,19,34,19.30
2016,03,14,19,35,14.50
2016,03,14,19,36,12.90
2016,03,14,19,37,8.10
2016,03,14,19,38,14.50
2016,03,14,19,39,9.60
2016,03,14,19,40,12.90
2016,03,14,19,41,14.50
2016,03,14,19,42,16.10
2016,03,14,19,43,11.30
2016,03,14,19,44,16.10
2016,03,14,19,45,12.90
2016,03,14,19,46,11.30
2016,03,14,19,47,16.10
2016,03,14,19,48,14.50
2016,03,14,19,49,11.30
2016,03,14,19,50,8.10
2016,03,14,19,51,8.10
2016,03,14,19,52,8.10
2016,03,14,19,53,14.50
2016,03,14,19,54,17.70
2016,03,14,19,55,11.30
2016,03,14,19,56,12.90
2016,03,14,19,57,8.10
2016,03,14,19,58,11.30
2016,03,14,19,59,16.10
2016,03,14,20,00,6.40
2016,03,14,20,01,8.10
2016,03,14,20,02,16.10
2016,03,14,20,03,14.50
2016,03,14,20,04,16.10
2016,03,14,20,05,8.10
2016,03,14,20,06,8.10
2016,03,14,20,07,8.10
2016,03,14,20,08,6.40
2016,03,14,20,09,11.30
2016,03,14,20,10,11.30
2016,03,14,20,11,16.10
2016,03,14,20,12,8.10
2016,03,14,20,13,6.40
2016,03,14,20,14,8.10
2016,03,14,20,15,6.40
2016,03,14,20,16,6.40
2016,03,14,20,17,9.60
2016,03,14,20,18,17.70
2016,03,14,20,19,9.60
2016,03,14,20,20,4.80
2016,03,14,20,21,11.30
2016,03,14,20,22,8.10
2016,03,14,20,23,8.10
2016,03,14,20,24,6.40
2016,03,14,20,25,8.10
2016,03,14,20,26,9.60
2016,03,14,20,27,11.30
2016,03,14,20,28,8.10
2016,03,14,20,29,3.20
2016,03,14,20,31,1.60
2016,03,14,20,33,4.80
2016,03,14,20,34,6.40
2016,03,14,20,37,4.80
2016,03,14,20,38,4.80
2016,03,14,20,41,6.40
2016,03,14,20,42,4.80
2016,03,14,20,43,4.80
2016,03,14,20,44,4.80
2016,03,14,20,46,1.60
2016,03,14,20,48,1.60
2016,03,14,20,49,3.20
2016,03,14,20,50,9.60
2016,03,14,21,32,1.60
2016,03,14,21,33,1.60
2016,03,14,21,38,1.60
2016,03,14,21,39,1.60
2016,03,14,21,40,3.20
2016,03,14,21,41,1.60
2016,03,14,21,54,1.60
2016,03,14,22,03,4.80
2016,03,14,22,04,4.80
2016,03,14,22,05,1.60
2016,03,14,22,06,3.20
2016,03,14,22,15,1.60
2016,03,14,22,16,3.20
2016,03,14,22,17,6.40
2016,03,14,22,18,8.10
2016,03,14,22,19,9.60
2016,03,14,22,20,8.10
2016,03,14,22,21,1.60
2016,03,14,22,25,4.80
2016,03,14,22,26,1.60
2016,03,14,22,27,6.40
2016,03,14,22,28,9.60
2016,03,14,22,29,3.20
2016,03,14,22,32,6.40
2016,03,14,22,33,4.80
2016,03,14,22,34,4.80
2016,03,14,22,35,1.60
2016,03,14,22,36,8.10
2016,03,14,22,37,4.80
2016,03,14,22,38,1.60
2016,03,14,22,39,1.60
2016,03,14,22,41,6.40
2016,03,14,22,42,4.80
2016,03,14,22,44,3.20
2016,03,14,22,45,4.80
2016,03,14,22,47,3.20
2016,03,14,22,48,4.80
2016,03,14,22,49,17.70
2016,03,14,22,50,16.10
2016,03,14,22,51,6.40
2016,03,14,22,53,16.10
2016,03,14,22,54,11.30
2016,03,14,22,55,6.40
2016,03,14,22,56,6.40
2016,03,14,22,57,9.60
2016,03,14,22,58,16.10
2016,03,14,22,59,16.10
2016,03,14,23,00,16.10
2016,03,14,23,01,16.10
2016,03,14,23,02,16.10
2016,03,14,23,03,16.10
2016,03,14,23,04,16.10
2016,03,14,23,05,9.60
2016,03,14,23,06,8.10
2016,03,14,23,07,8.10
2016,03,14,23,08,6.40
2016,03,14,23,09,4.80
2016,03,14,23,10,11.30
2016,03,14,23,11,8.10
2016,03,14,23,12,1.60
2016,03,14,23,13,25.70
2016,03,14,23,14,17.70
2016,03,14,23,15,4.80
2016,03,14,23,16,1.60
2016,03,14,23,17,20.90
2016,03,14,23,18,19.30
2016,03,14,23,19,19.30
2016,03,14,23,20,9.60
2016,03,14,23,21,11.30
2016,03,14,23,22,9.60
2016,03,14,23,23,8.10
2016,03,14,23,24,9.60
2016,03,14,23,25,6.40
2016,03,14,23,26,8.10
2016,03,14,23,27,8.10
2016,03,14,23,28,1.60
2016,03,14,23,29,16.10
2016,03,14,23,30,16.10
2016,03,14,23,31,11.30
2016,03,14,23,32,6.40
2016,03,14,23,33,8.10
2016,03,14,23,34,4.80
2016,03,14,23,35,1.60
2016,03,14,23,36,14.50
2016,03,14,23,37,4.80
2016,03,14,23,38,8.10
2016,03,14,23,39,3.20
2016,03,14,23,40,3.20
2016,03,14,23,42,1.60
2016,03,14,23,43,3.20
2016,03,14,23,44,11.30
2016,03,14,23,45,3.20
2016,03,14,23,46,4.80
2016,03,14,23,47,1.60
2016,03,14,23,48,3.20
2016,03,14,23,49,8.10
2016,03,14,23,50,6.40
2016,03,14,23,52,9.60
2016,03,14,23,53,1.60
2016,03,14,23,54,4.80
2016,03,14,23,55,6.40
2016,03,14,23,57,4.80
2016,03,14,23,58,11.30
2016,03,14,23,59,6.40
